DAL1441 KATL-KTRI

Flight info

Callsign DAL1441
Flight time 0h 45m
Altitude 25000
Route SMKEY2 SMKEY HUCHH SOT HMV
Aircraft A319/M-VGDW/C

Departure

Time 2026-05-05 23:05
Airport Hartsfield Jackson Atlanta International Airport (KATL)

Arrival

Time 2026-05-05 23:51
Airport Tri-Cities Regional TN/VA Airport (KTRI)
Time Latitude Longitude Altitude Speed Heading
2026-05-05 22:56 33.64339 -84.43532 1006 ft 0 kts 269°
2026-05-05 22:59 33.64340 -84.43511 1006 ft 4 kts 269°
2026-05-05 22:59 33.64338 -84.43476 1006 ft 4 kts 299°
2026-05-05 22:59 33.64318 -84.43457 1006 ft 0 kts 353°
2026-05-05 23:00 33.64319 -84.43457 1006 ft 1 kts 353°
2026-05-05 23:00 33.64345 -84.43454 1009 ft 8 kts 19°
2026-05-05 23:01 33.64417 -84.43406 1006 ft 14 kts 31°
2026-05-05 23:01 33.64459 -84.43295 1007 ft 17 kts 90°
2026-05-05 23:01 33.64459 -84.43132 1007 ft 21 kts 90°
2026-05-05 23:01 33.64459 -84.42948 1006 ft 23 kts 90°
2026-05-05 23:02 33.64464 -84.42742 1006 ft 26 kts 85°
2026-05-05 23:02 33.64469 -84.42518 1006 ft 28 kts 90°
2026-05-05 23:02 33.64472 -84.42278 1006 ft 30 kts 80°
2026-05-05 23:02 33.64542 -84.42041 1006 ft 31 kts 89°
2026-05-05 23:03 33.64542 -84.41774 1006 ft 33 kts 87°
2026-05-05 23:03 33.64543 -84.41501 1007 ft 34 kts 90°
2026-05-05 23:03 33.64541 -84.41218 1007 ft 35 kts 90°
2026-05-05 23:03 33.64541 -84.40917 1006 ft 37 kts 89°
2026-05-05 23:04 33.64568 -84.40658 1006 ft 17 kts 89°
2026-05-05 23:04 33.64580 -84.40579 1005 ft 8 kts 39°
2026-05-05 23:04 33.64648 -84.40564 1004 ft 12 kts 354°
2026-05-05 23:04 33.64680 -84.40647 1004 ft 19 kts 271°
2026-05-05 23:05 33.64679 -84.41104 1007 ft 90 kts 270°
2026-05-05 23:05 33.64678 -84.42108 1008 ft 148 kts 270°
2026-05-05 23:05 33.64681 -84.43392 1463 ft 157 kts 268°
2026-05-05 23:05 33.64682 -84.44715 2119 ft 161 kts 264°
2026-05-05 23:06 33.64755 -84.46085 2702 ft 175 kts 279°
2026-05-05 23:06 33.65271 -84.47492 3219 ft 192 kts 294°
2026-05-05 23:06 33.65935 -84.48904 3844 ft 196 kts 292°
2026-05-05 23:06 33.66553 -84.50383 4452 ft 202 kts 291°
2026-05-05 23:07 33.67169 -84.51946 4930 ft 216 kts 288°
2026-05-05 23:07 33.67777 -84.53696 5252 ft 239 kts 287°
2026-05-05 23:07 33.68582 -84.55576 5697 ft 268 kts 302°
2026-05-05 23:07 33.69970 -84.57151 6546 ft 283 kts 323°
2026-05-05 23:08 33.71816 -84.58056 7506 ft 292 kts 345°
2026-05-05 23:08 33.73863 -84.58189 8512 ft 297 kts 356°
2026-05-05 23:08 33.75938 -84.58151 9439 ft 300 kts 355°
2026-05-05 23:08 33.78019 -84.58116 10236 ft 299 kts 355°
2026-05-05 23:09 33.80106 -84.58005 11130 ft 304 kts
2026-05-05 23:09 33.82188 -84.57340 11825 ft 322 kts 16°
2026-05-05 23:09 33.84249 -84.56068 12086 ft 350 kts 24°
2026-05-05 23:09 33.86435 -84.54610 12483 ft 366 kts 24°
2026-05-05 23:10 33.88671 -84.53105 13216 ft 370 kts 24°
2026-05-05 23:10 33.90939 -84.51574 13982 ft 374 kts 23°
2026-05-05 23:10 33.93211 -84.50042 14680 ft 376 kts 23°
2026-05-05 23:10 33.95511 -84.48497 15353 ft 380 kts 23°
2026-05-05 23:11 33.97835 -84.46945 16009 ft 384 kts 23°
2026-05-05 23:11 34.00188 -84.45378 16656 ft 388 kts 23°
2026-05-05 23:11 34.02562 -84.43798 17314 ft 392 kts 24°
2026-05-05 23:11 34.04962 -84.42199 17995 ft 396 kts 24°
2026-05-05 23:12 34.07382 -84.40584 18590 ft 400 kts 24°
2026-05-05 23:12 34.09825 -84.38950 19175 ft 403 kts 24°
2026-05-05 23:12 34.12258 -84.37319 19725 ft 406 kts 24°
2026-05-05 23:12 34.14767 -84.35633 20308 ft 409 kts 24°
2026-05-05 23:13 34.17234 -84.33976 20882 ft 412 kts 24°
2026-05-05 23:13 34.19750 -84.32287 21455 ft 415 kts 24°
2026-05-05 23:13 34.22280 -84.30589 22009 ft 418 kts 24°
2026-05-05 23:13 34.24832 -84.28877 22553 ft 420 kts 24°
2026-05-05 23:14 34.27404 -84.27190 23119 ft 419 kts 20°
2026-05-05 23:14 34.30110 -84.25938 23642 ft 414 kts 10°
2026-05-05 23:14 34.32918 -84.25212 24072 ft 413 kts
2026-05-05 23:14 34.35739 -84.24566 24535 ft 414 kts
2026-05-05 23:15 34.38580 -84.23907 24880 ft 416 kts
2026-05-05 23:15 34.41422 -84.23241 24981 ft 418 kts
2026-05-05 23:15 34.44287 -84.22573 24999 ft 421 kts
2026-05-05 23:15 34.47167 -84.21898 24999 ft 422 kts
2026-05-05 23:16 34.50046 -84.21217 25007 ft 422 kts
2026-05-05 23:16 34.52927 -84.20538 25008 ft 422 kts
2026-05-05 23:16 34.55814 -84.19860 25011 ft 422 kts
2026-05-05 23:16 34.58695 -84.19183 25013 ft 422 kts
2026-05-05 23:17 34.61582 -84.18504 25023 ft 423 kts
2026-05-05 23:17 34.64467 -84.17822 25016 ft 423 kts
2026-05-05 23:17 34.67358 -84.17137 25030 ft 424 kts
2026-05-05 23:17 34.70216 -84.16461 25038 ft 425 kts
2026-05-05 23:18 34.73198 -84.15718 25029 ft 441 kts
2026-05-05 23:18 34.76109 -84.14422 25035 ft 463 kts 19°
2026-05-05 23:18 34.78904 -84.12339 25040 ft 480 kts 31°
2026-05-05 23:18 34.81469 -84.09689 25045 ft 485 kts 35°
2026-05-05 23:19 34.84014 -84.06992 25050 ft 486 kts 35°
2026-05-05 23:19 34.86565 -84.04284 25047 ft 486 kts 35°
2026-05-05 23:19 34.89118 -84.01579 25044 ft 487 kts 35°
2026-05-05 23:19 34.91684 -83.98870 25045 ft 487 kts 34°
2026-05-05 23:20 34.94251 -83.96161 25046 ft 487 kts 34°
2026-05-05 23:20 34.96811 -83.93457 25038 ft 487 kts 34°
2026-05-05 23:20 34.99374 -83.90749 25025 ft 487 kts 34°
2026-05-05 23:20 35.01930 -83.88045 25021 ft 487 kts 34°
2026-05-05 23:21 35.04478 -83.85344 25050 ft 485 kts 35°
2026-05-05 23:21 35.07015 -83.82644 25048 ft 483 kts 35°
2026-05-05 23:21 35.09506 -83.79988 25062 ft 480 kts 34°
2026-05-05 23:21 35.11975 -83.77352 24839 ft 464 kts 34°
2026-05-05 23:22 35.14435 -83.74729 24585 ft 465 kts 34°
2026-05-05 23:22 35.16851 -83.72166 24387 ft 465 kts 34°
2026-05-05 23:22 35.19294 -83.69571 24165 ft 464 kts 34°
2026-05-05 23:22 35.21727 -83.66984 23934 ft 463 kts 35°
2026-05-05 23:23 35.24152 -83.64397 23708 ft 462 kts 35°
2026-05-05 23:23 35.26570 -83.61814 23465 ft 461 kts 35°
2026-05-05 23:23 35.28984 -83.59231 23192 ft 459 kts 35°
2026-05-05 23:23 35.31385 -83.56665 22923 ft 458 kts 35°
2026-05-05 23:24 35.33781 -83.54103 22675 ft 456 kts 35°
2026-05-05 23:24 35.36172 -83.51541 22408 ft 456 kts 36°
2026-05-05 23:24 35.38558 -83.48976 22133 ft 455 kts 36°
2026-05-05 23:24 35.40937 -83.46414 21878 ft 454 kts 36°
2026-05-05 23:25 35.43298 -83.43873 21641 ft 452 kts 36°
2026-05-05 23:25 35.45657 -83.41335 21383 ft 450 kts 36°
2026-05-05 23:25 35.48007 -83.38804 20959 ft 448 kts 36°
2026-05-05 23:25 35.50309 -83.36327 20407 ft 444 kts 36°
2026-05-05 23:26 35.52628 -83.33831 19862 ft 441 kts 36°
2026-05-05 23:26 35.54923 -83.31351 19363 ft 438 kts 37°
2026-05-05 23:26 35.57202 -83.28883 18839 ft 435 kts 37°
2026-05-05 23:26 35.59467 -83.26430 18274 ft 433 kts 37°
2026-05-05 23:27 35.61727 -83.23986 17668 ft 431 kts 37°
2026-05-05 23:27 35.63977 -83.21552 17102 ft 430 kts 37°
2026-05-05 23:27 35.66215 -83.19128 16521 ft 428 kts 37°
2026-05-05 23:27 35.68438 -83.16722 16076 ft 422 kts 37°
2026-05-05 23:28 35.70623 -83.14356 15624 ft 416 kts 37°
2026-05-05 23:28 35.72789 -83.12008 15077 ft 414 kts 37°
2026-05-05 23:28 35.74906 -83.09706 14427 ft 410 kts 37°
2026-05-05 23:28 35.77031 -83.07391 13657 ft 407 kts 37°
2026-05-05 23:29 35.78460 -83.05830 13135 ft 408 kts 38°
2026-05-05 23:29 35.80995 -83.02424 12635 ft 400 kts 45°
2026-05-05 23:29 35.82791 -82.99875 12385 ft 388 kts 45°
2026-05-05 23:29 35.84549 -82.97396 12096 ft 381 kts 45°
2026-05-05 23:30 35.85728 -82.95744 11869 ft 378 kts 45°
2026-05-05 23:30 35.87485 -82.93286 11188 ft 389 kts 46°
2026-05-05 23:30 35.89289 -82.90762 10994 ft 404 kts 45°
2026-05-05 23:30 35.91144 -82.88153 10982 ft 407 kts 46°
2026-05-05 23:31 35.93009 -82.85517 11003 ft 408 kts 46°
2026-05-05 23:31 35.94870 -82.82877 10993 ft 407 kts 46°
2026-05-05 23:31 35.96731 -82.80235 11003 ft 408 kts 46°
2026-05-05 23:31 35.98590 -82.77590 10989 ft 408 kts 46°
2026-05-05 23:32 36.00457 -82.74929 10997 ft 410 kts 46°
2026-05-05 23:32 36.02330 -82.72266 10999 ft 410 kts 46°
2026-05-05 23:32 36.04194 -82.69616 11001 ft 403 kts 46°
2026-05-05 23:32 36.05983 -82.67067 10993 ft 382 kts 46°
2026-05-05 23:33 36.07665 -82.64665 10994 ft 357 kts 46°
2026-05-05 23:33 36.09241 -82.62414 10999 ft 335 kts 46°
2026-05-05 23:33 36.10734 -82.60284 10997 ft 324 kts 45°
2026-05-05 23:33 36.12210 -82.58186 11002 ft 322 kts 45°
2026-05-05 23:34 36.13674 -82.56104 10833 ft 317 kts 45°
2026-05-05 23:34 36.15111 -82.54059 10561 ft 315 kts 46°
2026-05-05 23:34 36.16546 -82.52017 10258 ft 314 kts 46°
2026-05-05 23:34 36.17975 -82.49979 9972 ft 312 kts 46°
2026-05-05 23:35 36.19393 -82.47951 9635 ft 310 kts 46°
2026-05-05 23:35 36.20800 -82.45935 9297 ft 308 kts 47°
2026-05-05 23:35 36.22194 -82.43936 8932 ft 306 kts 47°
2026-05-05 23:35 36.23579 -82.41949 8590 ft 304 kts 48°
2026-05-05 23:36 36.24937 -82.39998 8258 ft 302 kts 49°
2026-05-05 23:36 36.26303 -82.38038 7916 ft 299 kts 49°
2026-05-05 23:36 36.27655 -82.36095 7569 ft 297 kts 50°
2026-05-05 23:36 36.28997 -82.34166 7215 ft 294 kts 50°
2026-05-05 23:37 36.30330 -82.32248 6854 ft 293 kts 51°
2026-05-05 23:37 36.31657 -82.30340 6511 ft 291 kts 51°
2026-05-05 23:37 36.32977 -82.28445 6131 ft 289 kts 52°
2026-05-05 23:37 36.34275 -82.26585 5988 ft 277 kts 52°
2026-05-05 23:38 36.35495 -82.24835 5996 ft 260 kts 52°
2026-05-05 23:38 36.36639 -82.23190 5999 ft 244 kts 52°
2026-05-05 23:38 36.37716 -82.21636 6013 ft 235 kts 53°
2026-05-05 23:38 36.38777 -82.20101 6001 ft 234 kts 52°
2026-05-05 23:39 36.39822 -82.18589 5989 ft 225 kts 52°
2026-05-05 23:39 36.40822 -82.17151 5988 ft 217 kts 52°
2026-05-05 23:39 36.42004 -82.16019 5989 ft 216 kts 26°
2026-05-05 23:39 36.43437 -82.15573 5989 ft 212 kts 359°
2026-05-05 23:40 36.44867 -82.15856 5987 ft 205 kts 334°
2026-05-05 23:40 36.46058 -82.16766 5997 ft 198 kts 310°
2026-05-05 23:40 36.46923 -82.18050 5997 ft 193 kts 300°
2026-05-05 23:40 36.47749 -82.19369 5996 ft 193 kts 300°
2026-05-05 23:41 36.48576 -82.20684 6002 ft 193 kts 300°
2026-05-05 23:41 36.49384 -82.21964 5966 ft 186 kts 300°
2026-05-05 23:41 36.50167 -82.23210 5670 ft 185 kts 300°
2026-05-05 23:41 36.50951 -82.24459 5400 ft 182 kts 300°
2026-05-05 23:42 36.51722 -82.25689 5150 ft 180 kts 300°
2026-05-05 23:42 36.52487 -82.26909 4900 ft 179 kts 300°
2026-05-05 23:42 36.53247 -82.28124 4647 ft 177 kts 300°
2026-05-05 23:42 36.54005 -82.29332 4411 ft 175 kts 299°
2026-05-05 23:43 36.54701 -82.30481 4194 ft 157 kts 291°
2026-05-05 23:43 36.54900 -82.31709 3994 ft 139 kts 256°
2026-05-05 23:43 36.54563 -82.32749 3705 ft 126 kts 229°
2026-05-05 23:43 36.53933 -82.33488 3324 ft 124 kts 219°
2026-05-05 23:44 36.53289 -82.34216 2881 ft 128 kts 219°
2026-05-05 23:44 36.52623 -82.34973 2514 ft 131 kts 221°
2026-05-05 23:44 36.51927 -82.35766 2512 ft 140 kts 221°
2026-05-05 23:44 36.51201 -82.36593 2520 ft 142 kts 221°
2026-05-05 23:45 36.50472 -82.37429 2326 ft 144 kts 222°
2026-05-05 23:45 36.49746 -82.38252 2053 ft 138 kts 223°
2026-05-05 23:45 36.49054 -82.39046 1823 ft 134 kts 221°
2026-05-05 23:45 36.48386 -82.39810 1620 ft 126 kts 224°
2026-05-05 23:46 36.47781 -82.40498 1518 ft 107 kts 222°
2026-05-05 23:46 36.47322 -82.41019 1518 ft 67 kts 222°
2026-05-05 23:46 36.47046 -82.41329 1517 ft 74 kts 222°
2026-05-05 23:46 36.46456 -82.42003 1579 ft 145 kts 224°
2026-05-05 23:47 36.45539 -82.42696 2151 ft 165 kts 192°
2026-05-05 23:47 36.44415 -82.42428 2783 ft 169 kts 150°
2026-05-05 23:47 36.43750 -82.41248 3259 ft 177 kts 109°
2026-05-05 23:47 36.43950 -82.39707 3295 ft 192 kts 64°
2026-05-05 23:48 36.44837 -82.38441 3156 ft 197 kts 46°
2026-05-05 23:48 36.45820 -82.37247 2973 ft 199 kts 45°
2026-05-05 23:48 36.46821 -82.36116 2876 ft 187 kts 43°
2026-05-05 23:48 36.47744 -82.35186 2983 ft 155 kts 36°
2026-05-05 23:49 36.48784 -82.34842 2945 ft 158 kts 352°
2026-05-05 23:49 36.49681 -82.35506 2747 ft 154 kts 302°
2026-05-05 23:49 36.50184 -82.36692 2521 ft 156 kts 285°
2026-05-05 23:49 36.50058 -82.37926 2294 ft 139 kts 230°
2026-05-05 23:50 36.49352 -82.38702 1965 ft 138 kts 221°
2026-05-05 23:50 36.48655 -82.39497 1690 ft 132 kts 223°
2026-05-05 23:50 36.47977 -82.40271 1533 ft 130 kts 223°
2026-05-05 23:50 36.47388 -82.40944 1518 ft 98 kts 222°
2026-05-05 23:51 36.46996 -82.41388 1515 ft 56 kts 222°
2026-05-05 23:51 36.46973 -82.41547 1517 ft 21 kts 25°
2026-05-05 23:51 36.47113 -82.41399 1515 ft 37 kts 42°
2026-05-05 23:51 36.47319 -82.41165 1516 ft 40 kts 43°
2026-05-05 23:52 36.47510 -82.40975 1518 ft 29 kts 16°
2026-05-05 23:52 36.47712 -82.40941 1517 ft 29 kts
2026-05-05 23:52 36.47899 -82.40852 1517 ft 29 kts 46°
2026-05-05 23:52 36.47951 -82.40664 1517 ft 16 kts 44°
2026-05-05 23:53 36.48005 -82.40652 1517 ft 0 kts
2026-05-05 23:53 36.48008 -82.40651 1517 ft 0 kts